Dewpoint
-7 -7 -7 -7 -7 -7 -7 -7 -7 -7 -7 -7 -7 -6 -6 -5 -4 -3 -2 -2 -2 -2 -2 -2 -2 -2 -3 -4 -6 -7 -8 -10 -10 -11 -12 -12 -12 -15 -18 -20 -22 -22
-8 -8 -8 -8 -8 -8 -8 -8 -8 -8 -8 -8 -8 -7 -7 -7 -6 -5 -4 -4 -3 -3 -2 -2 -2 -2 -3 -3 -4 -5 -7 -8 -9 -10 -12 -10 -11 -14 -16 -18 -22 -22
-9 -9 -9 -9 -9 -9 -9 -9 -9 -9 -9 -9 -9 -9 -9 -8 -8 -8 -8 -7 -6 -6 -5 -5 -5 -5 -5 -4 -5 -5 -5 -6 -6 -7 -8 -8 -10 -13 -14 -18 -21 -22
-9 -9 -9 -9 -9 -9 -9 -10 -10 -10 -10 -10 -10 -10 -10 -10 -10 -9 -9 -9 -9 -9 -9 -9 -8 -8 -8 -8 -8 -8 -8 -7 -7 -7 -8 -7 -8 -10 -11 -14 -17 -19
-10 -10 -10 -10 -10 -10 -10 -10 -10 -10 -10 -10 -10 -10 -10 -10 -10 -10 -10 -10 -10 -10 -10 -10 -10 -10 -10 -10 -10 -10 -10 -10 -10 -10 -10 -10 -10 -10 -10 -11 -12 -13
-9 -9 -10 -10 -10 -10 -10 -10 -10 -10 -10 -10 -10 -11 -11 -11 -11 -11 -11 -11 -11 -11 -10 -10 -10 -10 -11 -11 -11 -11 -11 -12 -12 -12 -13 -12 -12 -12 -12 -12 -11 -11
-9 -9 -9 -9 -9 -10 -10 -10 -10 -10 -10 -10 -10 -10 -10 -11 -11 -11 -11 -11 -11 -11 -11 -11 -11 -11 -11 -11 -12 -12 -12 -13 -13 -13 -13 -13 -13 -13 -13 -13 -12 -12
-9 -9 -9 -9 -9 -9 -9 -9 -9 -9 -9 -10 -10 -10 -10 -10 -10 -10 -11 -11 -11 -11 -11 -11 -11 -11 -12 -12 -12 -13 -13 -13 -13 -13 -13 -13 -14 -13 -13 -14 -13 -13
-8 -8 -8 -9 -9 -9 -9 -9 -9 -9 -9 -9 -9 -9 -9 -10 -10 -10 -10 -10 -10 -10 -11 -11 -11 -11 -12 -12 -12 -13 -13 -13 -14 -14 -14 -14 -14 -14 -14 -14 -14 -14
-11 -11 -11 -10 -10 -9 -9 -9 -9 -9 -9 -9 -9 -10 -10 -10 -10 -10 -10 -10 -10 -10 -10 -11 -11 -11 -11 -11 -12 -12 -12 -13 -13 -14 -14 -14 -14 -14 -14 -14 -14 -14
-16 -16 -15 -15 -14 -14 -13 -12 -11 -10 -10 -9 -9 -9 -10 -10 -10 -10 -10 -10 -10 -10 -10 -10 -11 -11 -11 -11 -11 -12 -12 -12 -13 -13 -13 -14 -14 -14 -14 -14 -14 -14
-19 -19 -19 -19 -19 -18 -18 -17 -17 -16 -14 -13 -12 -11 -10 -10 -9 -10 -10 -11 -11 -11 -10 -11 -11 -11 -11 -11 -11 -11 -12 -12 -12 -12 -13 -13 -13 -14 -14 -14 -14 -14
-21 -21 -21 -21 -21 -21 -21 -21 -21 -20 -20 -19 -18 -16 -15 -13 -12 -10 -10 -10 -10 -11 -11 -11 -11 -11 -11 -11 -11 -11 -11 -12 -12 -12 -12 -13 -13 -13 -13 -13 -13 -13
-23 -24 -24 -24 -24 -24 -24 -24 -24 -23 -23 -23 -22 -21 -20 -19 -17 -15 -13 -11 -10 -10 -10 -11 -11 -11 -11 -11 -11 -11 -11 -11 -11 -12 -12 -12 -12 -13 -13 -13 -13 -13
-27 -28 -29 -30 -30 -30 -30 -29 -29 -29 -28 -27 -26 -26 -25 -24 -23 -21 -19 -17 -15 -12 -11 -10 -10 -11 -12 -12 -12 -11 -11 -11 -11 -11 -12 -12 -12 -12 -12 -13 -13 -13
-32 -34 -34 -34 -35 -35 -35 -35 -35 -34 -34 -33 -32 -31 -30 -29 -28 -26 -24 -23 -21 -18 -15 -12 -11 -10 -11 -11 -12 -12 -12 -12 -12 -12 -12 -12 -12 -12 -12 -12 -13 -13
-34 -35 -35 -35 -35 -35 -35 -36 -36 -35 -36 -35 -35 -34 -33 -32 -32 -31 -29 -27 -25 -23 -21 -18 -14 -12 -11 -11 -11 -12 -12 -12 -12 -12 -13 -12 -12 -12 -12 -13 -13 -13
-33 -33 -33 -34 -34 -34 -34 -34 -34 -34 -34 -34 -34 -34 -33 -33 -32 -32 -31 -29 -28 -26 -24 -22 -19 -16 -13 -12 -11 -11 -12 -12 -12 -12 -13 -13 -13 -13 -13 -13 -13 -13
-32 -32 -32 -32 -32 -32 -32 -32 -31 -31 -31 -31 -31 -31 -30 -30 -30 -29 -28 -28 -27 -27 -26 -24 -22 -19 -17 -15 -13 -12 -12 -13 -13 -13 -13 -13 -13 -13 -13 -13 -13 -13
-30 -29 -29 -29 -29 -29 -28 -28 -28 -28 -28 -27 -27 -27 -27 -26 -26 -26 -25 -25 -24 -24 -24 -23 -22 -20 -19 -17 -16 -14 -13 -13 -13 -14 -13 -13 -13 -13 -13 -13 -13 -13
-28 -28 -27 -27 -27 -26 -26 -26 -26 -26 -26 -25 -25 -25 -25 -24 -24 -24 -23 -23 -23 -22 -22 -22 -21 -20 -19 -18 -17 -15 -15 -14 -14 -14 -14 -14 -14 -14 -14 -14 -14 -14
-26 -26 -26 -26 -26 -25 -25 -25 -25 -25 -24 -24 -24 -24 -24 -24 -23 -23 -23 -23 -22 -22 -22 -21 -21 -20 -19 -18 -17 -16 -15 -15 -15 -15 -14 -14 -14 -14 -14 -14 -14 -14
-25 -25 -25 -25 -25 -25 -25 -24 -24 -24 -24 -24 -24 -24 -23 -23 -23 -23 -23 -23 -23 -22 -22 -22 -21 -21 -20 -19 -18 -17 -16 -16 -16 -16 -15 -15 -15 -15 -15 -15 -15 -15
-24 -24 -24 -24 -24 -24 -24 -24 -24 -24 -24 -23 -23 -23 -23 -23 -23 -23 -23 -23 -23 -23 -23 -22 -22 -21 -21 -20 -19 -18 -18 -17 -17 -17 -17 -17 -16 -16 -16 -16 -16 -15
-25 -24 -24 -24 -24 -24 -24 -24 -24 -24 -23 -23 -23 -22 -22 -22 -22 -22 -23 -23 -23 -23 -23 -23 -23 -22 -21 -21 -20 -19 -19 -18 -18 -18 -18 -18 -17 -17 -17 -17 -17 -16
-24 -24 -24 -24 -24 -24 -24 -24 -24 -24 -23 -23 -23 -23 -22 -22 -22 -22 -22 -23 -23 -23 -23 -23 -23 -23 -22 -22 -21 -21 -20 -19 -19 -19 -19 -18 -18 -18 -18 -18 -18 -17
Wind_Speed
8 9 11 12 14 15 16 17 18 20 21 21 22 22 22 23 24 25 26 26 26 27 27 28 30 32 34 37 39 40 43 45 46 47 48 49 50 51 52 53 53 53
8 9 10 11 12 13 14 15 17 18 19 19 20 20 20 20 21 22 23 24 25 26 27 27 28 29 30 32 35 38 41 43 45 46 48 50 51 52 53 54 54 54
9 9 10 11 12 12 13 15 16 17 18 18 18 18 19 19 20 21 22 23 24 24 25 26 27 27 28 29 30 33 36 39 41 43 46 48 50 52 54 54 55 55
8 9 10 11 11 12 13 15 16 17 18 18 18 18 19 19 20 21 22 23 23 24 24 25 26 26 27 28 28 30 32 34 35 37 40 44 46 49 51 52 54 55
7 8 9 10 11 12 14 15 16 16 17 18 18 18 20 20 21 22 22 23 23 24 24 25 26 26 27 28 28 30 31 32 32 33 36 39 41 43 45 47 50 52
8 8 9 10 10 11 13 15 15 16 17 18 18 18 19 20 22 22 23 23 24 24 25 26 27 27 28 28 30 31 32 32 32 32 35 37 38 40 41 43 46 48
10 10 11 11 12 12 13 14 14 15 16 17 18 18 19 20 22 22 23 24 25 25 26 27 28 29 29 30 31 33 33 33 33 33 35 37 37 38 39 41 43 45
8 9 11 12 12 13 14 15 15 16 17 18 19 19 19 21 22 23 23 25 26 27 28 28 30 30 31 32 34 35 35 35 34 34 36 36 37 38 38 39 41 43
6 7 8 9 10 12 13 14 15 16 18 19 20 21 21 22 23 23 24 25 27 28 29 30 31 32 33 34 35 36 37 37 36 36 37 37 37 38 37 37 39 41
8 8 9 9 10 10 11 13 14 15 16 18 20 21 22 22 23 24 25 26 27 28 29 30 31 32 33 35 36 37 38 38 38 38 38 39 39 38 37 37 38 40
10 11 11 12 13 13 14 14 15 16 16 17 19 20 21 22 23 24 25 26 28 28 29 30 31 32 33 34 36 36 37 38 38 39 39 40 40 40 39 39 39 40
14 14 15 15 16 16 17 17 18 18 19 19 20 21 22 22 23 24 25 27 28 28 29 30 30 31 33 34 35 36 37 38 38 39 40 40 41 41 41 41 41 42
18 18 19 19 20 20 21 21 21 21 21 21 22 22 23 23 24 25 25 27 28 29 30 30 31 31 32 33 34 36 37 38 39 40 41 41 42 42 42 42 42 43
21 22 22 23 23 24 24 24 24 25 24 24 24 24 25 25 25 26 26 27 28 29 30 31 31 32 32 33 34 35 36 38 39 40 41 42 42 42 43 43 44 44
24 24 24 25 25 26 26 27 27 27 27 27 27 27 27 27 27 27 27 28 28 29 30 31 32 32 32 33 34 34 36 37 38 39 41 42 43 43 44 45 45 45
25 25 25 26 27 27 27 28 28 28 29 29 29 29 29 29 29 28 28 29 29 29 29 30 31 31 31 32 33 34 35 36 37 39 40 41 43 44 45 46 46 46
23 24 24 25 26 26 27 28 28 28 29 29 29 29 29 29 30 30 29 29 30 30 30 30 30 30 30 31 31 32 33 35 37 38 39 41 42 44 45 46 46 47
22 23 23 24 24 25 25 26 26 27 28 28 28 29 29 29 30 30 30 30 30 31 31 30 30 29 29 29 29 29 30 32 35 37 38 40 41 43 44 45 46 46
22 22 22 23 23 23 24 24 24 25 25 26 27 27 27 28 28 29 29 30 30 31 32 32 31 29 28 28 28 27 27 28 31 34 37 39 41 42 43 43 44 45
22 22 22 22 23 23 23 23 23 24 24 24 25 25 25 26 26 26 27 28 29 30 31 32 32 30 29 28 26 26 25 26 28 31 35 38 40 42 42 43 44 44
21 22 22 23 24 24 24 25 24 24 25 25 25 25 25 25 26 26 26 26 27 28 30 31 31 30 29 28 27 25 24 25 27 30 33 36 39 40 42 43 44 45
21 22 23 24 24 25 25 26 26 25 25 25 26 25 25 25 26 26 27 27 27 27 28 29 29 29 28 28 27 25 23 24 27 29 32 35 37 38 39 41 43 44
21 22 23 24 24 25 26 26 26 26 26 26 26 26 26 26 26 26 26 27 27 27 27 28 28 27 27 27 26 25 24 24 26 29 32 35 36 37 37 39 41 42
22 23 24 24 25 25 26 26 26 26 26 25 25 26 26 26 26 26 26 25 26 26 26 27 27 27 26 26 26 24 23 24 26 28 32 34 35 36 36 37 39 40
23 23 24 24 25 25 25 26 26 26 26 25 25 26 26 26 26 26 26 25 25 25 24 25 26 25 24 24 25 24 23 23 25 27 30 33 34 35 36 36 37 38
23 23 24 24 25 25 26 26 26 26 26 26 26 27 27 27 27 27 27 27 26 25 25 24 25 25 24 23 23 24 24 24 25 26 29 31 33 34 36 37 37 37
Wind_Direction
292 291 292 292 293 294 294 294 292 290 287 285 284 282 280 278 277 276 275 275 273 270 267 265 263 261 260 259 258 257 256 256 256 256 255 256 256 256 256 256 256 256
291 290 291 292 294 297 298 298 296 293 292 291 290 289 288 285 282 279 278 277 276 275 274 272 270 267 265 263 261 260 260 259 259 258 257 258 258 257 257 257 256 256
292 291 291 293 296 299 299 298 296 295 296 296 295 295 294 291 288 285 282 281 279 277 276 274 273 271 270 268 266 264 262 261 261 260 260 260 259 259 259 258 257 256
294 294 294 294 296 298 299 296 295 297 299 298 299 299 297 294 291 289 287 285 283 282 281 279 278 277 275 274 271 269 267 265 265 264 263 263 262 261 261 260 259 258
271 282 289 293 294 296 296 294 296 299 299 299 300 300 297 295 292 290 289 287 286 285 284 282 281 280 279 278 276 274 272 271 270 268 267 267 266 265 264 262 261 260
249 253 261 270 275 282 287 290 294 297 297 298 298 297 295 293 291 290 289 288 287 285 284 282 281 280 279 278 277 276 275 275 274 273 271 270 270 269 268 266 263 262
264 264 263 264 264 267 273 278 283 286 289 291 290 290 290 289 288 287 287 287 285 283 282 281 280 280 279 279 277 276 276 275 274 273 272 271 271 270 269 268 267 265
286 286 285 283 281 279 278 277 277 276 277 278 278 279 280 281 282 283 283 283 282 281 281 281 280 280 281 280 278 278 277 276 274 273 272 272 271 270 270 269 269 267
320 313 306 303 298 295 292 289 287 284 280 277 275 274 273 272 274 276 277 278 278 279 279 280 280 281 281 280 280 280 280 279 277 276 274 273 272 272 272 272 271 269
334 330 325 322 317 312 308 303 299 296 292 288 285 282 278 274 272 271 271 272 273 274 276 277 278 279 280 280 280 280 281 281 280 279 277 276 275 275 274 273 272 271
334 331 327 324 322 319 316 313 309 305 302 299 295 292 289 285 281 276 273 271 270 270 272 273 274 276 277 278 279 280 280 281 280 280 279 278 278 277 276 275 273 272
329 326 324 321 319 317 315 312 311 308 305 302 299 296 295 292 289 285 281 277 274 272 271 270 271 272 273 275 277 278 279 279 279 279 279 279 278 278 277 276 275 274
324 322 321 318 316 314 312 310 308 306 304 303 300 298 296 294 291 288 286 283 280 277 274 272 270 270 270 272 274 276 277 277 278 278 278 278 277 277 277 276 275 274
321 320 318 316 313 312 309 307 305 303 301 300 299 297 296 295 293 290 287 285 283 282 280 276 273 270 269 270 272 274 275 276 277 278 278 277 277 277 276 275 274 274
319 318 316 314 311 310 308 307 306 304 303 301 299 297 296 294 293 291 289 287 285 283 281 279 276 274 272 271 271 272 274 275 276 277 277 277 277 276 276 275 274 273
316 316 314 313 311 310 309 308 307 306 305 303 302 300 298 296 294 292 291 289 287 285 282 280 278 276 274 273 272 272 273 274 274 275 275 276 276 275 275 274 274 274
314 314 313 312 311 310 309 308 307 306 304 303 303 302 300 298 297 295 293 291 289 287 285 283 280 278 275 273 272 272 273 273 273 273 273 274 274 274 274 274 275 275
314 314 313 312 311 310 309 308 307 306 305 304 303 302 301 300 299 298 297 296 293 291 289 287 285 282 279 277 274 273 274 276 276 275 274 273 272 273 273 274 275 275
316 315 315 314 313 312 312 311 310 309 309 308 306 305 304 303 302 301 300 299 298 296 294 293 292 290 287 284 280 276 275 276 278 277 277 276 275 275 275 275 275 276
317 318 319 318 318 319 318 318 318 317 317 315 313 312 311 309 308 306 304 303 302 300 299 298 298 298 296 293 289 283 279 276 275 274 275 276 276 277 277 277 277 277
320 322 324 324 325 325 325 325 325 325 324 322 320 319 318 316 315 313 311 309 307 305 302 301 301 301 300 297 293 288 284 279 275 272 272 272 273 275 276 277 277 277
323 324 326 326 326 326 325 326 327 327 326 325 322 321 320 319 319 317 316 315 312 310 307 304 304 303 301 298 294 290 287 283 278 275 274 273 272 273 273 274 275 275
328 327 327 327 326 326 325 326 326 326 326 325 323 322 322 321 320 318 318 318 316 315 313 310 308 307 304 300 296 292 290 286 281 279 278 276 276 274 273 273 273 273
328 326 325 324 324 324 323 324 325 324 324 323 322 321 321 321 320 318 318 318 317 317 317 315 313 312 308 304 298 294 291 287 283 281 280 279 279 278 277 276 275 274
323 322 323 322 323 323 322 323 324 323 323 323 322 320 320 319 320 319 318 318 318 318 319 318 317 315 313 308 302 297 293 288 284 282 281 281 281 281 280 279 278 278
323 322 323 323 322 322 321 322 323 322 321 321 320 319 318 318 319 318 317 318 319 320 320 321 321 320 318 314 309 303 296 290 285 282 282 282 282 281 280 280 279 279
Height
1440 1440 1440 1440 1440 1440 1440 1440 1440 1439 1439 1439 1439 1439 1440 1440 1440 1440 1441 1442 1442 1443 1444 1446 1447 1448 1449 1450 1452 1452 1453 1454 1454 1455 1456 1456 1456 1456 1456 1457 1458 1458
1438 1438 1437 1437 1437 1438 1438 1438 1437 1437 1437 1437 1437 1437 1437 1438 1438 1438 1438 1438 1438 1439 1440 1441 1442 1443 1444 1445 1446 1447 1448 1448 1448 1450 1450 1450 1450 1450 1450 1451 1452 1453
1436 1436 1435 1435 1435 1435 1435 1435 1435 1434 1434 1434 1434 1434 1435 1435 1436 1435 1436 1436 1436 1436 1437 1438 1438 1439 1440 1441 1442 1442 1442 1442 1442 1444 1444 1444 1444 1444 1444 1446 1446 1447
1434 1434 1434 1433 1432 1433 1433 1432 1432 1432 1432 1432 1432 1432 1432 1432 1432 1432 1432 1433 1433 1433 1434 1434 1434 1435 1436 1436 1437 1436 1436 1437 1437 1438 1438 1437 1438 1438 1439 1440 1440 1440
1432 1431 1431 1431 1430 1430 1430 1430 1430 1430 1430 1429 1429 1429 1429 1429 1429 1429 1429 1429 1430 1430 1430 1430 1430 1430 1431 1432 1432 1431 1432 1432 1433 1434 1433 1431 1432 1432 1433 1434 1434 1434
1428 1428 1427 1427 1427 1427 1427 1427 1427 1427 1427 1427 1426 1426 1426 1426 1426 1426 1426 1426 1426 1426 1426 1426 1426 1426 1427 1427 1427 1426 1427 1427 1428 1429 1428 1426 1427 1427 1428 1428 1427 1427
1426 1426 1425 1424 1424 1424 1423 1424 1424 1424 1424 1424 1423 1423 1423 1422 1422 1422 1422 1422 1422 1422 1422 1422 1422 1422 1422 1423 1422 1422 1422 1423 1424 1424 1422 1422 1422 1422 1422 1422 1422 1421
1424 1424 1424 1423 1422 1422 1421 1421 1420 1420 1420 1420 1419 1419 1419 1419 1418 1418 1418 1418 1418 1418 1418 1418 1418 1418 1418 1418 1418 1417 1418 1418 1419 1419 1418 1418 1418 1416 1417 1418 1417 1416
1423 1423 1422 1422 1421 1420 1420 1419 1418 1418 1417 1416 1416 1416 1415 1415 1415 1414 1414 1414 1414 1413 1413 1413 1413 1413 1413 1413 1412 1412 1412 1413 1414 1414 1413 1412 1412 1412 1412 1413 1412 1410
1422 1422 1421 1420 1420 1419 1418 1417 1416 1416 1415 1414 1413 1413 1412 1412 1411 1410 1410 1410 1409 1409 1409 1409 1408 1408 1408 1408 1407 1408 1408 1408 1408 1408 1407 1407 1406 1406 1407 1408 1406 1405
1420 1420 1420 1419 1418 1417 1416 1415 1414 1414 1413 1412 1411 1410 1409 1408 1408 1407 1406 1405 1405 1405 1404 1404 1404 1404 1404 1403 1403 1403 1402 1402 1402 1402 1402 1401 1401 1401 1401 1402 1400 1399
1419 1419 1418 1417 1416 1415 1414 1413 1412 1411 1410 1410 1408 1407 1406 1406 1404 1404 1402 1401 1400 1400 1400 1400 1400 1400 1399 1398 1398 1398 1398 1398 1397 1397 1396 1396 1396 1395 1395 1395 1394 1394
1417 1416 1416 1415 1414 1413 1412 1411 1410 1409 1408 1406 1406 1404 1403 1402 1401 1400 1399 1398 1396 1396 1395 1394 1394 1394 1394 1394 1393 1393 1393 1392 1392 1391 1391 1390 1390 1389 1389 1389 1388 1388
1414 1414 1413 1412 1410 1409 1408 1407 1406 1405 1404 1403 1402 1401 1400 1398 1397 1396 1395 1394 1392 1392 1390 1390 1389 1388 1388 1388 1388 1388 1388 1386 1386 1386 1385 1384 1384 1383 1383 1382 1382 1382
1411 1410 1409 1408 1407 1406 1404 1403 1402 1401 1400 1398 1398 1396 1396 1394 1393 1392 1390 1390 1388 1388 1386 1386 1384 1384 1384 1383 1383 1382 1382 1381 1380 1380 1379 1378 1377 1376 1376 1375 1375 1375
1408 1407 1406 1404 1403 1402 1400 1399 1398 1396 1395 1394 1392 1392 1390 1389 1388 1388 1386 1385 1384 1383 1382 1381 1380 1379 1379 1378 1378 1376 1376 1375 1374 1373 1372 1372 1370 1369 1368 1368 1368 1368
1405 1404 1402 1401 1400 1398 1397 1395 1394 1393 1391 1390 1388 1387 1386 1384 1384 1382 1381 1380 1379 1378 1377 1376 1375 1374 1374 1373 1372 1371 1370 1369 1368 1366 1366 1365 1364 1362 1362 1361 1361 1361
1402 1401 1400 1398 1397 1395 1394 1392 1391 1390 1388 1386 1385 1383 1382 1380 1379 1378 1376 1375 1374 1373 1372 1371 1370 1370 1369 1368 1367 1366 1366 1364 1362 1361 1360 1358 1358 1356 1355 1355 1355 1355
1399 1397 1396 1395 1394 1392 1391 1390 1388 1386 1385 1383 1381 1380 1378 1377 1376 1374 1372 1371 1370 1368 1367 1366 1365 1364 1364 1363 1362 1362 1362 1360 1358 1356 1354 1352 1352 1350 1350 1350 1350 1349
1396 1394 1393 1391 1390 1388 1387 1386 1385 1383 1381 1380 1378 1376 1374 1373 1372 1370 1369 1368 1366 1364 1362 1361 1360 1359 1358 1358 1357 1356 1356 1356 1354 1352 1350 1348 1346 1345 1345 1344 1344 1344
1392 1391 1389 1388 1386 1385 1383 1382 1380 1379 1378 1376 1374 1372 1371 1369 1368 1366 1365 1364 1362 1360 1358 1356 1356 1355 1354 1353 1352 1351 1351 1350 1348 1346 1344 1343 1342 1341 1340 1339 1339 1338
1390 1388 1386 1384 1383 1381 1380 1378 1377 1376 1374 1372 1370 1369 1368 1366 1364 1363 1361 1360 1358 1356 1354 1352 1352 1351 1349 1348 1347 1346 1346 1344 1342 1341 1339 1337 1336 1336 1336 1334 1334 1333
1386 1384 1383 1382 1380 1378 1376 1375 1374 1372 1371 1369 1367 1366 1364 1363 1361 1360 1358 1356 1354 1352 1351 1348 1347 1346 1345 1344 1342 1342 1340 1339 1337 1336 1334 1332 1331 1331 1330 1329 1328 1328
1384 1382 1380 1379 1377 1376 1374 1373 1372 1370 1368 1366 1365 1362 1361 1360 1358 1356 1355 1353 1351 1350 1348 1345 1343 1342 1341 1339 1338 1337 1336 1334 1332 1330 1328 1327 1326 1325 1324 1324 1322 1322
1382 1380 1378 1377 1375 1374 1372 1370 1368 1367 1365 1364 1362 1360 1358 1356 1354 1353 1351 1350 1348 1346 1345 1343 1340 1338 1338 1336 1334 1333 1332 1330 1328 1326 1324 1322 1321 1320 1318 1318 1318 1316
1379 1378 1376 1374 1372 1370 1368 1367 1365 1364 1362 1360 1358 1356 1354 1352 1351 1349 1347 1346 1344 1343 1341 1340 1337 1335 1334 1332 1330 1329 1328 1326 1324 1322 1320 1318 1316 1315 1313 1312 1312 1311